EW4196 Weather Reports


Display with metric or nautical units.
time (UTC)temp
F
wind
direction
speed
MPH
gust
MPH
rain 1hr
in
rain 24hr
in
rain mn
in
humidity
%
barometer
mb
20260904110051 77 105 0.0 0.0 0.00 0.00 0.00 81 1012.2
20260904104537 77 105 0.0 3.0 0.00 0.00 0.00 80 1012.3
20260904103036 77 103 0.0 1.0 0.00 0.00 0.00 80 1012.1
20260904101535 77 103 0.0 0.0 0.00 0.00 0.00 80 1011.9
20260904100040 77 103 0.0 0.0 0.00 0.00 0.00 79 1011.8
20260904094531 77 103 0.0 0.0 0.00 0.00 0.00 77 1011.7
20260904093037 78 103 0.0 0.0 0.00 0.00 0.00 77 1011.8
20260904091528 78 103 0.0 0.0 0.00 0.00 0.00 76 1011.7
20260904090025 79 108 0.0 0.0 0.00 0.00 0.00 75 1011.5
20260904084524 79 92 0.0 1.0 0.00 0.00 0.00 75 1011.4
20260904083025 79 92 0.0 0.0 0.00 0.00 0.00 74 1011.4
20260904081521 79 92 0.0 1.0 0.00 0.00 0.00 73 1011.2
20260904080020 79 92 0.0 0.0 0.00 0.00 0.00 73 1011.2
20260904074518 79 92 0.0 0.0 0.00 0.00 0.00 72 1011.4
20260904073017 80 92 0.0 0.0 0.00 0.00 0.00 71 1011.2
20260904071517 80 130 0.0 1.0 0.00 0.00 0.00 71 1011.3
20260904070034 80 100 0.0 0.0 0.00 0.00 0.00 70 1011.4
20260904064512 81 98 0.0 1.0 0.00 0.00 0.00 69 1011.4
20260904063014 81 176 0.0 0.0 0.00 0.00 0.00 68 1011.3
20260904061508 82 153 0.0 1.0 0.00 0.00 0.00 68 1011.3
20260904060006 82 131 0.0 1.0 0.00 0.00 0.00 67 1011.2
20260904054504 82 92 0.0 1.0 0.00 0.00 0.00 67 1011.2
20260904053002 82 90 0.0 0.0 0.00 0.00 0.00 66 1011.2
20260904051603 83 133 0.0 1.0 0.00 0.00 0.00 65 1011.0
20260904050057 83 129 0.0 0.0 0.00 0.00 0.00 64 1011.1
20260904044603 84 143 0.0 2.0 0.00 0.00 0.00 63 1011.0
20260904043057 84 93 0.0 2.0 0.00 0.00 0.00 63 1011.0
20260904041556 84 133 0.0 3.0 0.00 0.00 0.00 63 1011.1
20260904040054 84 132 0.0 1.0 0.00 0.00 0.00 63 1010.9
20260904034558 84 147 0.0 0.0 0.00 0.00 0.00 63 1011.0
20260904033053 85 149 0.0 0.0 0.00 0.00 0.00 63 1010.9
20260904031553 85 135 0.0 0.0 0.00 0.00 0.00 62 1010.9
20260904030055 86 135 0.0 1.0 0.00 0.00 0.00 61 1010.8
20260904024552 86 132 0.0 1.0 0.00 0.00 0.00 59 1010.5
20260904023057 87 129 0.0 0.0 0.00 0.00 0.00 58 1010.4
20260904021551 88 93 0.0 1.0 0.00 0.00 0.00 57 1010.1
20260904020050 88 131 0.0 0.0 0.00 0.00 0.00 56 1009.9
20260904014550 89 178 0.0 0.0 0.00 0.00 0.00 55 1009.7
20260904013049 89 177 0.0 0.0 0.00 0.00 0.00 53 1009.4
20260904011606 90 169 0.0 0.0 0.00 0.00 0.00 51 1009.3
20260904010056 91 177 0.0 1.0 0.00 0.00 0.00 50 1009.1
20260904004548 92 109 0.0 4.0 0.00 0.00 0.00 49 1009.0
20260904003048 92 95 0.0 4.0 0.00 0.00 0.00 47 1009.0
20260904001547 93 97 0.0 5.0 0.00 0.00 0.00 47 1008.9
20260904000053 94 90 0.0 9.0 0.00 0.00 0.00 46 1008.9
20260903234547 95 107 1.0 7.0 0.00 0.00 0.00 45 1008.9
20260903233046 95 93 3.0 10.0 0.00 0.00 0.00 44 1008.9
20260903231547 97 96 0.0 7.0 0.00 0.00 0.00 42 1009.0
20260903230047 97 92 3.0 8.0 0.00 0.00 0.00 43 1009.0
20260903224544 97 98 0.0 8.0 0.00 0.00 0.00 44 1009.0
20260903223038 96 99 1.0 8.0 0.00 0.00 0.00 45 1008.9
20260903221539 95 91 2.0 10.0 0.00 0.00 0.00 47 1009.0
20260903220040 95 96 3.0 11.0 0.00 0.00 0.00 47 1009.1
20260903214542 95 110 2.0 11.0 0.00 0.00 0.00 47 1009.1
20260903213046 95 105 0.0 9.0 0.00 0.00 0.00 47 1009.3
20260903211535 96 102 0.0 9.0 0.00 0.00 0.00 47 1009.3
20260903210034 96 92 2.0 11.0 0.00 0.00 0.00 47 1009.4
20260903204529 96 125 1.0 7.0 0.00 0.00 0.00 47 1009.6
20260903203033 95 130 2.0 11.0 0.00 0.00 0.00 48 1009.8
20260903201534 96 135 0.0 5.0 0.00 0.00 0.00 47 1009.9
20260903200024 95 90 0.0 10.0 0.00 0.00 0.00 48 1010.2
20260903194528 96 131 1.0 8.0 0.00 0.00 0.00 46 1010.2
20260903193035 96 91 6.0 11.0 0.00 0.00 0.00 46 1010.3
20260903191525 95 113 2.0 9.0 0.00 0.00 0.00 46 1010.5
20260903190025 95 129 2.0 12.0 0.00 0.00 0.00 50 1010.6
20260903184521 96 136 0.0 6.0 0.00 0.00 0.00 48 1010.8
20260903183020 95 101 0.0 6.0 0.00 0.00 0.00 47 1011.0
20260903181519 95 135 0.0 7.0 0.00 0.00 0.00 47 1011.1
20260903180021 95 95 2.0 9.0 0.00 0.00 0.00 47 1011.2
20260903174513 94 108 2.0 11.0 0.00 0.00 0.00 49 1011.5
20260903173009 93 133 2.0 13.0 0.00 0.00 0.00 51 1011.6
20260903171507 93 111 1.0 8.0 0.00 0.00 0.00 50 1011.7
20260903170011 92 101 5.0 13.0 0.00 0.00 0.00 52 1011.8
20260903164505 92 97 1.0 6.0 0.00 0.00 0.00 54 1012.0
20260903163102 90 101 1.0 8.0 0.00 0.00 0.00 56 1012.1
20260903161558 90 98 0.0 10.0 0.00 0.00 0.00 57 1012.2
20260903160055 89 131 0.0 4.0 0.00 0.00 0.00 60 1012.3
20260903154555 89 95 2.0 7.0 0.00 0.00 0.00 60 1012.5
20260903153049 87 127 0.0 6.0 0.00 0.00 0.00 64 1012.5
20260903151547 87 134 0.0 7.0 0.00 0.00 0.00 64 1012.6
20260903150045 86 143 0.0 6.0 0.00 0.00 0.00 66 1012.7
20260903144547 85 175 0.0 7.0 0.00 0.00 0.00 68 1012.8
20260903143047 84 94 2.0 9.0 0.00 0.00 0.00 69 1012.9
20260903141541 82 128 1.0 8.0 0.00 0.00 0.00 72 1012.9
20260903140045 81 94 4.0 9.0 0.00 0.00 0.00 73 1013.2
20260903134539 80 93 2.0 6.0 0.00 0.00 0.00 75 1013.3
20260903133044 79 94 0.0 6.0 0.00 0.00 0.00 77 1013.3
20260903131538 79 91 1.0 4.0 0.00 0.00 0.00 78 1013.2
20260903130042 78 129 0.0 3.0 0.00 0.00 0.00 79 1013.2
20260903124534 77 134 0.0 0.0 0.00 0.00 0.00 80 1013.0
20260903123032 77 127 0.0 0.0 0.00 0.00 0.00 80 1012.9
20260903121535 77 101 0.0 0.0 0.00 0.00 0.00 79 1012.9
20260903120039 77 143 0.0 3.0 0.00 0.00 0.00 79 1012.8
20260903114526 77 100 0.0 2.0 0.00 0.00 0.00 78 1012.6
20260903113041 77 96 0.0 4.0 0.00 0.00 0.00 77 1012.5
20260903111522 78 105 0.0 0.0 0.00 0.00 0.00 76 1012.6